Location: ????????
(37.7818°N, 24.0459°E)
Time: 09:24:54
(UTC+00:00)

Daily predictions for brighter satellites

Satellite Brightness Start Highest point End
(mag) Time Altitude Azimuth Time Altitude Azimuth Time Altitude Azimuth
BREEZE M DEB (TANK) 4.4 17:48:13 10° NW 17:53:03 83° SW 18:11:37 10° SE
IRS-1A Rocket 4.4 18:04:13 10° SSE 18:10:02 87° WSW 18:15:46 10° NNW
STARLINK-1090 3.7 18:08:03 10° NW 18:12:13 79° NE 18:16:21 10° SE
Cosmos 1833 Rocket 3.4 18:07:38 10° N 18:12:52 38° ENE 18:18:04 10° SE
Cosmos 407 Rocket 3.6 18:07:56 10° NNW 18:13:19 90° SSW 18:18:40 10° SSE
BREEZE-M DEB (TANK) 2.2 18:10:56 10° NW 18:13:21 83° NNE 18:15:50 10° SE
Meteor 1-18 Rocket 4.3 18:08:14 10° S 18:13:48 88° E 18:19:30 10° N
Cosmos 614 Rocket 4.3 18:09:41 10° NNW 18:14:44 66° WSW 18:19:48 10° S
CZ-2C R/B 3.9 18:10:03 10° S 18:15:26 60° W 18:21:06 10° NNW
Hubble Space Telescope 3.0 18:13:58 10° SW 18:15:50 13° SSW 18:17:40 10° S
Cosmos 1420 Rocket 4.0 18:11:51 10° S 18:16:59 62° ESE 18:22:06 10° NNE
STARLINK-1089 3.6 18:13:03 10° NW 18:17:12 87° NE 18:21:20 10° SE
Cosmos 1452 Rocket 3.9 18:12:19 10° S 18:17:14 42° ESE 18:22:11 10° NNE
Cosmos 1743 3.0 18:14:41 10° NNW 18:18:28 68° W 18:22:14 10° S
Cosmos 2082 Rocket 3.4 18:14:24 10° N 18:19:13 27° ENE 18:24:00 10° ESE
FREGAT/IRIS 3.2 18:18:17 10° S 18:20:51 48° W 18:23:28 10° NNW
STARLINK-1107 3.6 18:18:00 10° NW 18:22:10 85° SW 18:26:11 11° SE
DMSP B5D2-2 4.1 18:17:32 10° NNE 18:22:50 71° ESE 18:28:03 10° S
GENESIS II 4.2 18:22:09 10° NNW 18:26:10 77° ENE 18:29:54 11° SE
STARLINK-1066 3.7 18:22:59 10° NW 18:27:08 77° SW 18:30:57 12° SE
Cosmos 1140 Rocket 3.5 18:22:33 10° NNW 18:27:47 89° WSW 18:33:01 10° SSE
Cosmos 1461 3.3 18:24:01 10° S 18:27:48 40° ESE 18:31:47 10° NE
ATLAS 3B CENTAUR R/B 4.5 18:10:40 10° WSW 18:28:11 44° S 18:36:26 10° ESE
ASTEX 1 3.6 18:24:16 10° S 18:29:08 73° W 18:34:04 10° N
Iridium 51 4.2 18:25:26 10° S 18:29:19 61° E 18:32:56 10° N
MOS 1 Rocket 3.3 18:25:37 10° N 18:29:58 76° WNW 18:34:12 10° SSW
Okean 3 3.7 18:26:07 10° SSE 18:30:16 50° E 18:34:26 10° NNE
SJ-6B 3.1 18:26:50 10° S 18:30:30 63° W 18:34:12 10° NNW
NOSS 8 (F) 4.3 18:27:05 10° SSW 18:30:40 63° ESE 18:33:43 10° NE
Cosmos 1782 Rocket 3.6 18:26:22 10° N 18:30:53 89° E 18:35:20 10° S
STARLINK-1081 3.8 18:28:00 10° NW 18:32:07 69° SW 18:35:46 13° SE
Cosmos 1544 3.0 18:31:43 10° N 18:35:20 87° E 18:38:54 10° S
Meteor 2-9 Rocket 4.1 18:31:14 10° N 18:36:35 83° E 18:41:54 10° S
STARLINK-1070 3.9 18:32:58 10° NW 18:37:04 62° SW 18:40:32 14° SSE
Cosmos 2221 Rocket 3.7 18:32:45 10° S 18:37:09 57° E 18:41:37 10° NNE
ASTRO E2 3.7 18:34:53 10° SW 18:38:20 29° S 18:40:51 15° ESE
STARLINK-1069 4.0 18:37:59 10° NW 18:42:02 55° SW 18:45:19 15° SSE
STARLINK-1085 4.2 18:43:00 10° WNW 18:47:01 49° SW 18:50:07 16° SSE
SL-4 R/B 1.3 18:45:20 10° NNW 18:48:16 55° ENE 18:49:44 24° SE
Cosmos 2278 Rocket 3.2 18:42:53 10° SW 18:48:23 51° WNW 18:53:55 10° NNE
STARLINK-1086 4.4 18:48:01 10° WNW 18:51:58 44° SW 18:54:53 17° SSE
Sich 1 Rocket 3.8 18:49:38 10° N 18:54:14 79° W 18:58:47 10° S
Resurs 01 Rocket 1.6 18:50:41 15° SSE 18:54:24 71° ENE 18:58:50 10° N
Meteor 1-12 Rocket 4.3 18:52:03 10° N 18:57:42 66° E 19:02:18 16° SSE
STARLINK-1117 4.4 18:55:17 10° NW 18:59:16 43° NE 19:01:55 19° E
GPS 2-04 Rocket1 2.4 18:56:14 10° W 18:59:40 62° S 19:01:44 23° ESE
Okean 2 Rocket 3.0 18:55:26 10° N 18:59:51 71° E 19:03:03 18° SSE
Cosmos 2279 Rocket 4.1 18:54:37 10° N 19:00:47 61° E 19:05:36 17° SSE
SPOT 3 Rocket 3.9 18:56:39 10° S 19:01:43 62° WSW 19:06:51 10° NNW
NOSS 8 (H) 4.1 18:58:20 10° SSW 19:01:49 83° SE 19:04:52 10° NE
Cosmos 371 Rocket 3.8 18:58:54 10° SSW 19:03:41 64° WNW 19:08:32 10° NNE
STARLINK-1078 4.3 19:00:15 10° NW 19:04:15 47° NE 19:06:42 21° ESE
Cosmos 1110 Rocket 4.4 18:59:57 13° S 19:04:16 42° ESE 19:09:08 10° NNE
Cosmos 1850 Rocket 4.4 19:00:47 10° N 19:05:59 49° ENE 19:09:05 23° SE
Cosmos 1954 Rocket 4.4 19:00:46 10° NNW 19:05:59 63° WSW 19:10:32 14° S
Spot 2 Rocket 3.9 19:03:52 21° SE 19:06:52 45° ENE 19:11:40 10° N
Terra 3.9 19:05:29 11° E 19:07:20 14° ENE 19:09:39 10° NE
SPOT 1/Viking Rocket 4.4 19:04:39 20° ESE 19:07:23 33° ENE 19:11:57 10° N
BREEZE-M DEB (TANK) 3.6 19:08:16 26° ESE 19:08:16 26° ESE 19:12:11 10° ENE
SL-4 R/B 3.1 19:04:27 10° S 19:08:27 29° SE 19:12:35 10° ENE
STARLINK-1108 4.1 19:05:12 10° NW 19:09:15 52° NE 19:11:29 24° ESE
STARLINK-1071 4.0 19:10:09 10° NW 19:14:14 57° NE 19:16:16 27° ESE
Cosmos 2151 Rocket 3.6 19:10:04 10° N 19:14:36 71° E 19:17:10 25° SSE
STARLINK-1110 3.8 19:13:56 10° NW 19:18:02 61° NE 19:19:54 30° ESE
Abrixas rocket 4.4 19:16:31 10° NNW 19:18:39 18° NNE 19:20:22 12° ENE
Cosmos 1331 Rocket 4.0 19:17:20 18° S 19:21:05 55° ESE 19:26:08 10° NNE
STARLINK-1124 3.7 19:20:05 10° NW 19:24:13 69° NE 19:25:50 35° ESE
STARLINK-1122 3.6 19:25:02 10° NW 19:29:11 76° NE 19:30:37 39° ESE
Cosmos 1300 Rocket 4.0 19:25:20 10° NNW 19:29:42 59° W 19:32:31 21° SSW
Aureole 2 Rocket 2.8 19:27:53 15° SW 19:30:21 53° WNW 19:33:19 10° N
NOSS 2-2 (D) 3.0 19:27:37 10° SW 19:31:11 82° WNW 19:34:55 10° NNE
Cosmos 1437 Rocket 3.2 19:28:55 16° SSW 19:31:50 58° W 19:35:35 10° N
H-2A ROCKET BODY 4.2 19:28:14 10° SSW 19:33:58 34° SE 19:55:34 10° E
STARLINK-1126 3.5 19:30:03 10° NW 19:34:13 84° NE 19:35:27 44° SE
Cosmos 1378 3.5 19:35:06 42° E 19:35:12 42° E 19:38:43 10° NNE
Cosmos 304 Rocket 4.0 19:30:32 10° SSW 19:35:16 68° WNW 19:40:03 10° NNE
Meteor 1-15 Rocket 4.3 19:30:43 10° N 19:36:38 68° E 19:39:26 32° SSE
STARLINK-1082 3.5 19:34:58 10° NW 19:39:08 88° SW 19:40:10 50° SE
Lacrosse 5 2.1 19:36:05 10° NW 19:41:03 59° SW 19:42:55 36° S
ISS -3.7 19:40:43 10° WNW 19:44:03 61° SW 19:44:06 61° SW
STARLINK-1100 3.5 19:39:57 10° NW 19:44:05 80° SW 19:44:56 55° SSE
Cosmos 1674 Rocket 4.1 19:42:07 18° SSW 19:45:13 56° W 19:49:33 10° N
Cosmos 1378 Rocket 3.7 19:45:48 27° SSW 19:48:07 70° W 19:52:30 10° N
NOSS 3-4 (A) 4.5 19:49:11 25° E 19:49:11 25° E 19:53:13 10° ENE
NOSS 3-4 (C) 4.5 19:49:20 24° E 19:49:20 24° E 19:53:18 10° ENE
STARLINK-1083 3.6 19:44:57 10° NW 19:49:05 72° SW 19:49:44 58° SSE
Cosmos 2297 4.4 19:47:08 10° SW 19:52:40 54° WNW 19:58:17 10° NNE
Cosmos 1943 Rocket 2.1 19:50:22 32° S 19:52:55 66° ESE 19:58:27 10° NNE
STARLINK-1125 3.6 19:49:57 10° NW 19:54:04 64° SW 19:54:31 58° S
Cosmos 1833 Rocket 4.3 19:51:57 10° NW 19:56:33 27° WSW 20:00:09 14° SSW
IGS 5A 3.8 19:55:29 42° SSW 19:56:38 60° W 20:00:45 10° NNW
Cosmos 1766 3.8 19:53:39 10° N 19:57:24 44° ENE 19:57:24 44° ENE
STARLINK-1109 3.7 19:54:57 10° NW 19:59:02 58° SW 19:59:18 56° SSW
Landsat 7 4.1 19:57:48 36° SSW 19:59:33 61° W 20:04:16 10° NNW
BREEZE-M DEB 4.1 19:59:36 10° W 20:01:47 34° NNW 20:06:03 10° NE
Cosmos 2082 Rocket 3.1 19:58:06 10° NW 20:03:24 40° WSW 20:06:02 25° SSW
STARLINK-1091 3.9 19:59:56 10° WNW 20:03:57 52° SW 20:04:04 51° SW
SeaSat 1 4.2 20:02:59 10° ENE 20:04:49 17° ENE 20:04:49 17° ENE
Cosmos 1975 Rocket 3.1 20:07:29 60° E 20:07:33 60° E 20:11:55 10° NNE
Cosmos 2369 Rocket 2.1 20:07:22 47° SSE 20:08:49 64° ESE 20:14:25 10° NNE
STARLINK-1072 4.1 20:04:58 10° WNW 20:08:52 46° SW 20:08:52 46° SW
Cosmos 292 Rocket 4.2 20:09:53 44° E 20:09:53 44° E 20:14:08 10° NNE
STARLINK-1096 4.4 20:10:00 10° WNW 20:13:39 41° WSW 20:13:39 41° WSW
SPOT 5 3.0 20:14:18 55° S 20:15:31 88° WSW 20:20:53 10° NNW
ATLAS 2AS CENTAUR R/B 3.1 20:13:12 38° SSE 20:15:59 53° ESE 20:23:40 10° NE
STARLINK-1104 4.4 20:12:16 10° NW 20:16:13 42° NE 20:16:40 40° NE
Cosmos 2026 Rocket 4.0 20:15:52 48° SSE 20:17:36 67° E 20:23:53 10° NNE
ATLAS CENTAUR R/B 3.7 20:23:28 14° ENE 20:23:28 14° ENE 20:24:12 10° NE
ERS-1 Rocket 3.1 20:19:40 51° SSW 20:20:47 66° WSW 20:25:49 10° NNW
STARLINK-1144 4.3 20:17:13 10° NW 20:21:13 45° NE 20:21:27 45° NE
Cosmos 1656 Rocket 4.3 20:23:31 39° E 20:23:31 39° E 20:28:09 10° NE
NOSS 3-2 (A) 4.3 20:16:39 10° NNW 20:24:19 64° NE 20:27:49 38° ESE
Meteor 1-22 Rocket 4.1 20:19:50 10° N 20:25:42 83° E 20:26:47 60° SSE
Okean 2 3.5 20:25:56 70° W 20:25:58 70° W 20:30:07 10° N
STARLINK-1103 4.2 20:22:10 10° NW 20:26:12 50° NE 20:26:13 50° NE
Thor Agena Rocket 4.4 20:22:19 10° NNE 20:26:36 35° E 20:26:36 35° E
APEX 4.3 20:27:35 49° S 20:29:24 74° ESE 20:35:08 10° NNE
STARLINK-1101 4.1 20:27:07 10° NW 20:31:00 54° NNE 20:31:00 54° NNE
USA 238 DEB 3.9 20:28:48 10° NNW 20:36:05 72° NE 20:38:25 47° SE
STARLINK-1102 4.1 20:32:05 10° NW 20:35:48 57° N 20:35:48 57° N
USA 238 3.9 20:28:55 10° NNW 20:36:12 72° NE 20:38:32 47° SE
Cosmos 968 Rocket 4.2 20:32:29 10° N 20:37:16 38° ENE 20:37:31 38° ENE
Cosmos 1805 4.2 20:33:38 10° NNW 20:37:07 43° W 20:37:07 43° W
Cosmos 1470 4.2 20:34:04 10° N 20:36:30 29° NE 20:36:30 29° NE
BREEZE-M DEB (TANK) 3.6 20:29:03 10° SW 20:39:13 50° S 20:39:13 50° S
Meteor 2-13 Rocket 4.3 20:39:29 56° S 20:40:55 89° W 20:47:07 10° N
STARLINK-1111 4.1 20:37:02 10° NW 20:40:34 57° N 20:40:34 57° N
Cosmos 1455 Rocket 3.3 20:38:32 10° N 20:42:18 65° NNE 20:42:18 65° NNE
Terra 2.0 20:44:22 61° WSW 20:44:31 61° WSW 20:49:14 10° NNW
STARLINK-1073 4.2 20:42:00 10° NW 20:45:22 55° NNW 20:45:22 55° NNW
SL-8 R/B 3.8 20:41:26 10° NW 20:46:14 68° NNE 20:46:16 68° NE
SL-4 R/B 3.2 20:43:22 10° WSW 20:48:00 51° NW 20:52:44 10° NE
Cosmos 1842 4.3 20:48:52 44° NW 20:48:52 44° NW 20:52:08 10° N
STARLINK-1121 4.4 20:46:58 10° NW 20:50:08 51° NW 20:50:08 51° NW
ATLAS 3B CENTAUR R/B 3.5 20:41:08 10° WSW 20:50:57 39° SSW 20:50:57 39° SSW
Cosmos 2263 4.3 20:57:25 54° WSW 20:58:33 69° WNW 21:04:09 10° NNE
Milstar 3 Cent rocket 4.5 20:48:29 10° SW 20:58:48 54° SSE 21:20:57 10° E
Cosmos 1536 Rocket 4.4 21:08:36 46° NNE 21:08:36 46° NNE 21:11:44 10° N
COSMOS 2455 2.8 21:09:45 69° E 21:09:45 69° E 21:15:27 10° NNE
Cosmos 1271 Rocket 4.2 21:14:22 36° NNW 21:14:22 36° NNW 21:16:56 10° N
Spot 4 4.3 21:14:22 57° NE 21:14:22 57° NE 21:18:34 10° N
BREEZE-M R/B 4.3 21:03:09 10° SW 21:15:12 59° ESE 21:19:43 10° ENE
Cosmos 1354 Rocket 4.4 21:11:15 10° N 21:16:12 55° ENE 21:16:12 55° ENE
Cosmos 1486 Rocket 4.2 21:13:22 10° NNW 21:18:13 64° WNW 21:18:13 64° WNW
Cosmos 1833 4.2 21:13:38 10° NNW 21:19:13 69° ENE 21:19:13 69° ENE
Cosmos 1707 4.4 21:24:35 33° NNW 21:24:35 33° NNW 21:26:58 10° N
Cosmos 1417 Rocket 4.5 21:21:30 10° N 21:27:49 74° W 21:28:19 70° SW
CENTAUR R/B 3.1 21:20:36 10° NNW 21:28:57 87° ENE 21:31:08 57° SE
ALOS 2 3.9 21:30:24 34° NE 21:30:24 34° NE 21:33:27 10° N
ATLAS 3B R/B 3.4 21:25:19 10° NNW 21:31:50 45° NE 21:33:57 36° E
NOSS 3-2 (C) 4.0 21:26:13 10° NW 21:34:03 79° WSW 21:35:37 62° S
Cosmos 1726 4.2 21:31:04 10° N 21:32:50 26° N 21:32:50 26° N
Meteor 1-16 Rocket 4.3 21:30:56 10° N 21:35:51 62° NE 21:35:51 62° NE
Cosmos 1867 3.8 21:33:02 10° NNW 21:38:07 66° NNE 21:38:07 66° NNE
NOSS 3-4 (A) 4.1 21:36:32 33° WSW 21:38:47 48° NW 21:44:49 10° NNE
NOSS 3-4 (C) 4.1 21:36:40 33° WSW 21:38:53 48° NW 21:44:56 10° NNE
Cosmos 2098 Rocket 4.3 21:39:41 63° ESE 21:40:14 65° E 21:47:37 10° NNE
SeaSat 1 3.2 21:39:38 10° NNE 21:44:20 45° WNW 21:44:35 45° WNW
RESURS DK-1 4.2 21:53:56 27° NNE 21:53:56 27° NNE 21:55:53 10° NNE
Cosmos 2315 Rocket 4.0 21:45:57 10° N 21:52:08 67° E 21:52:08 67° E
Cosmos 2369 Rocket 4.5 21:49:27 10° W 21:53:18 18° NW 21:57:09 10° N
S3M 4.3 21:52:04 10° NNW 21:58:02 52° W 21:58:10 52° W
ATLAS CENTAUR R/B 3.2 21:59:35 28° NW 21:59:35 28° NW 22:03:00 10° N
Exosat Rocket 4.1 21:57:13 10° NNW 22:05:53 83° WSW 22:06:20 78° SSW
ATLAS 2AS CENTAUR R/B 4.2 22:00:30 12° WSW 22:07:13 39° NW 22:14:34 10° NNE
BREEZE-M DEB (TANK) 4.4 22:06:36 10° NW 22:11:57 41° WNW 22:11:57 41° WNW
FALCON 9 R/B 3.6 22:19:35 38° ESE 22:19:35 38° ESE 22:27:38 10° E
Cosmos 1809 Rocket 4.4 22:21:17 85° NNW 22:21:17 85° NNW 22:27:21 10° N
Cosmos 1777 Rocket 4.4 22:18:59 10° NNW 22:23:18 61° N 22:23:18 61° N
EO 1 Delta rocket 4.4 22:20:13 10° N 22:24:37 59° NNE 22:24:37 59° NNE
Cosmos 921 Rocket 4.4 22:31:52 36° N 22:31:52 36° N 22:34:29 10° NNE
Meteor 1-24 Rocket 3.8 22:33:05 66° N 22:33:05 66° N 22:37:45 10° N
CZ-4C R/B 3.5 22:36:20 27° ENE 22:36:20 27° ENE 22:39:30 10° NE
Cosmos 1980 Rocket 4.3 22:45:27 15° E 22:45:27 15° E 22:48:09 10° ENE
Resurs 1-4 Rocket 4.2 22:43:05 10° ENE 22:46:03 15° E 22:46:05 15° E
SJ 16-02 3.2 22:43:41 10° N 22:47:11 25° ENE 22:47:11 25° ENE
Helios 1B rocket 3.9 22:47:40 10° NNE 22:50:09 36° NNE 22:50:09 36° NNE
USA 215 3.1 22:52:57 65° SE 22:54:04 87° NE 23:00:39 10° NW
Cosmos 1745 Rocket 3.9 22:55:33 74° E 22:55:34 74° E 23:01:41 10° N
CZ-2D R/B 3.9 22:56:08 10° NE 22:59:51 19° E 22:59:52 19° E
Meteor 2-16 Rocket 4.4 23:00:55 76° W 23:00:55 76° W 23:07:02 10° N
Cosmos 2219 3.3 22:56:36 10° NNW 23:02:13 65° ENE 23:02:17 65° ENE
Cosmos 468 Rocket 4.4 23:05:31 55° ENE 23:05:31 55° ENE 23:09:44 10° NNE
Cosmos 2297 Rocket 2.5 23:00:56 10° NNW 23:06:31 57° ENE 23:07:00 55° E
Lacrosse 4 Rocket 3.9 23:07:03 10° N 23:09:57 17° NE 23:11:39 14° E
Timation 2 Rocket 4.4 23:07:52 10° NW 23:12:54 46° W 23:12:54 46° W
Cosmos 1455 4.3 23:10:47 10° NNE 23:12:54 23° NE 23:12:54 23° NE
Meteor 2-10 Rocket 4.3 23:09:32 10° N 23:14:24 41° ENE 23:14:39 41° E
Cosmos 1898 Rocket 4.3 23:11:48 10° N 23:16:55 46° ENE 23:17:36 43° E
IRAS Rocket 4.4 23:18:20 60° E 23:18:51 63° ENE 23:24:20 10° N
Cosmos 2278 4.5 23:21:32 40° ESE 23:21:32 40° ESE 23:26:42 10° NE
SL-16 R/B 3.7 23:19:18 23° ESE 23:22:18 36° ENE 23:27:50 10° N
ATLAS 3B R/B 3.6 23:16:14 10° NW 23:21:10 33° W 23:21:10 33° W
Meteor 1-21 Rocket 4.2 23:22:26 74° E 23:22:26 74° E 23:28:08 10° NNE
Cosmos 1656 3.9 23:27:53 59° WNW 23:27:57 59° WNW 23:33:32 10° NNE
Cosmos 1386 Rocket 4.5 23:29:51 62° W 23:30:07 63° W 23:36:15 10° N
ATLAS CENTAUR R/B 3.1 23:28:59 10° NNW 23:31:58 43° NE 23:38:34 10° ESE
Cosmos-2242 4.3 23:28:49 10° NNE 23:32:30 34° ENE 23:32:30 34° ENE
Cosmos 1697 Rocket 2.6 23:32:47 82° ESE 23:32:48 82° ESE 23:38:29 10° NNE
Cosmos 1570 Rocket 4.2 23:35:09 62° E 23:35:09 62° E 23:40:15 10° NNE
Cosmos 1812 Rocket 4.3 23:35:35 10° N 23:38:55 49° NNW 23:38:55 49° NNW
SL-19 R/B 4.3 23:35:21 10° N 23:40:55 70° WNW 23:41:19 68° WSW
USA 81 3.9 23:42:28 83° NW 23:42:28 83° NW 23:47:40 10° N
Cosmos 990 Rocket 3.9 23:37:54 10° NNW 23:43:09 84° ENE 23:43:09 84° ENE
Cosmos 2227 Rocket 2.0 23:37:43 10° NNW 23:43:25 82° WSW 23:43:29 82° SW
Cosmos 1825 Rocket 4.0 23:44:53 57° NE 23:44:53 57° NE 23:48:27 10° NNE
Cosmos 1709 Rocket 3.8 23:44:11 72° SSW 23:44:48 82° W 23:50:59 10° N
Cosmos 2208 Rocket 4.1 23:47:08 67° ESE 23:47:14 67° ESE 23:52:30 10° NNE
Alouette 2 Rocket 3.9 23:46:22 10° N 23:50:43 62° NNE 23:50:43 62° NNE
SL-16 R/B 4.3 23:50:09 14° ESE 23:52:06 16° E 23:55:25 10° ENE
Cosmos 841 Rocket 3.4 23:53:16 80° SE 23:53:23 81° ESE 23:58:38 10° NNE
UNK 4.2 23:54:33 51° E 23:55:04 54° ENE 23:59:32 10° N
